CZ-6A DEB, 54895

Orbit data source: Space-Track

CZ-6A DEB, 54895 is space debris in SSO originally from a launch on Fri, 11 Nov 2022 UTC launched from the Taiyaun Space Center, China (TSC). Debris objects in space refer to the collection of defunct objects orbiting the Earth. Examples of debris include non-operational satellites, rocket bodies, and fragments generated from explosions, collisions, or faulty payload assembly.

Loading next visibility...
Identifier
54895, 2022-151QG
Orbit
SSO
Country
Flag of CNCN / PRC
Related business
Manufacturer
SAST
Mission
Spacecraft
Bus & Motor
Unknown
Mass
Unknown
Launch date (UTC)
2022-11-11 (4 years ago)
Launch vehicle
Unknown
Launch site
Taiyaun Space Center, China (TSC)
Object type
Payload
Rocket body
Debris
Shape & HBR
Unknown shape, 0.1 m
Radar Cross Section
Medium (>0.1 m² and <1 m²)

Expand to show TLE details & history
Last TLE update: 15 hours ago

TLE from 15 hours ago
0 CZ-6A DEB
1 54895U 22151QG  26265.10362668  .00005140  00000-0  81075-3 0  9999
2 54895  98.6282 334.8257 0064643 346.1357  13.8071 14.71492603201686
Epoch: 2026-09-22T02:29Z
TLE epoch observation values (Epoch: 2026-09-22T02:29:13.345Z)
Latitude
0.00002°
Longitude
-63.45381°
Altitude
615.143 km
Speed
7.575 km/s
True Right ascension
22h 19m 18s
True Declination
0° 00' 00"
Sunlit
Object was in full shadow at epoch
Visualization orbit readout
Latitude
Unknown
Longitude
Unknown
Altitude
Unknown
Speed
Unknown
Apparent Right ascension
Unknown
Apparent Declination
Unknown
Sunlit
N/A
Visualization observer readout
Local Sidereal Time
11:00:05
Azimuth
Unknown
Elevation
Unknown
Doppler factor
Unknown
Orbital elements
Apogee altitude
698.847 km
Perigee altitude
607.939 km
Semi-major axis
7,031.53 km
Eccentricity
0.00646
Inclination
98.6282°
RAAN
334.8257°
Arg. of periapsis
346.1357°
True anomaly
13.98528°
Mean anomaly
13.8071°
Eccentric anomaly
13.89605°
Mean motion
3.68102 °/min
Orbital period
97.8 mins
BSTAR
0.00081075
Loading maneuver chart data...
Computing Atmospheric mass density...

Documentation

Showing up to 5 results
|